Weather History for Glasgow, MT

Change the Weather History Date:

Sunday, June 16, 2013

  Actual Average Record
Temperature  
Mean Temperature 61 °F 64 °F  
Max Temperature 73 °F 77 °F 107 °F (1931)
Min Temperature 49 °F 52 °F 35 °F (1939)
Degree Days  
Heating Degree Days 4 3  
Month to date heating degree days 74 75  
Since 1 June heating degree days 74 75  
Since 1 July heating degree days 8568 8406  
Cooling Degree Days 0 2  
Month to date cooling degree days 3 28  
Year to date cooling degree days 12 45  
Since 1 June cooling degree days 3 28  
Growing Degree Days 12 (Base 50)    
Moisture  
Dew Point 49 °F    
Average Humidity 67    
Maximum Humidity 89    
Minimum Humidity 44    
Precipitation  
Precipitation 0.00 in 0.08 in 2.55 in (2007)
Month to date precipitation 2.87 1.32  
Year to date precipitation 10.14 5.14  
Snow  
Snow 0.00 in 0.00 in 0.00 in (2002)
Month to date snowfall 0.0 0.0  
Since 1 June snowfall 0.0 0.0  
Since 1 July snowfall 62.3 34.8  
Snow Depth 0.00 in    
Sea Level Pressure  
Sea Level Pressure 30.02 in    
Wind  
Wind Speed 13 mph (NW)    
Max Wind Speed 25 mph    
Max Gust Speed 32 mph    
Visibility 10 miles    
Events      
T = Trace of Precipitation, MM = Missing Value Source: NWS Daily Summary

Daily Weather History Graph

Daily Weather History Graph

Search for Another Location

Airport:

Trip Planner

Search our weather history database for the weather conditions in past years. The results will help you decide how hot, cold, wet, or windy it might be!

Date:

Astronomy

Jun. 16, 2013 Rise Set
Actual Time 5:05 AM MDT 9:09 PM MDT
Civil Twilight 4:23 AM MDT 9:50 PM MDT
Nautical Twilight 3:25 AM MDT 10:49 PM MDT
Astronomical Twilight 1:42 AM MDT 12:33 AM MDT
Moon 1:18 PM MDT (6/16) 12:43 AM MDT (6/16)
Length of Visible Light 17h 27m
Length of Day
16h 04m
Waxing Crescent, 50% of the Moon is Illuminated
Jun 16
Waxing Crescent
Jun 23
Full
Jun 29
Last Quarter
Jul 8
New
Jul 15
First Quarter

Hourly Weather History & Observations

Time (MDT) Temp. Dew Point Humidity Pressure Visibility Wind Dir Wind Speed Gust Speed Precip Events Conditions
12:53 AM 54.0 °F 48.9 °F 83% 29.93 in 10.0 mi WSW 4.6 mph - N/A   Clear
1:53 AM 52.0 °F 48.0 °F 86% 29.94 in 10.0 mi West 5.8 mph - N/A   Clear
2:53 AM 51.1 °F 46.9 °F 86% 29.96 in 10.0 mi NW 4.6 mph - N/A   Clear
3:53 AM 51.1 °F 46.9 °F 86% 29.96 in 10.0 mi WSW 5.8 mph - N/A   Clear
4:53 AM 50.0 °F 46.0 °F 86% 29.98 in 10.0 mi West 6.9 mph - N/A   Clear
5:53 AM 51.1 °F 46.9 °F 86% 29.99 in 10.0 mi West 6.9 mph - N/A   Clear
6:53 AM 53.1 °F 48.9 °F 86% 29.99 in 10.0 mi WSW 5.8 mph - N/A   Clear
7:53 AM 59.0 °F 50.0 °F 72% 30.00 in 10.0 mi WNW 11.5 mph - N/A   Clear
8:53 AM 62.1 °F 50.0 °F 65% 30.01 in 10.0 mi WNW 18.4 mph - N/A   Clear
9:53 AM 64.9 °F 48.9 °F 56% 30.01 in 10.0 mi WNW 19.6 mph 24.2 mph N/A   Clear
10:53 AM 66.9 °F 50.0 °F 54% 30.02 in 10.0 mi NW 17.3 mph 28.8 mph N/A   Clear
11:53 AM 68.0 °F 50.0 °F 52% 30.03 in 10.0 mi WNW 20.7 mph 27.6 mph N/A   Partly Cloudy
12:53 PM 70.0 °F 48.0 °F 46% 30.03 in 10.0 mi WNW 21.9 mph 32.2 mph N/A   Partly Cloudy
1:53 PM 72.0 °F 48.9 °F 44% 30.03 in 10.0 mi NW 21.9 mph 29.9 mph N/A   Partly Cloudy
2:53 PM 72.0 °F 48.0 °F 43% 30.02 in 10.0 mi NW 20.7 mph 27.6 mph N/A   Scattered Clouds
3:53 PM 71.1 °F 48.9 °F 45% 30.03 in 10.0 mi NNW 21.9 mph 28.8 mph N/A   Scattered Clouds
4:53 PM 71.1 °F 50.0 °F 47% 30.04 in 10.0 mi NW 18.4 mph 31.1 mph N/A   Partly Cloudy
5:53 PM 70.0 °F 48.9 °F 47% 30.03 in 10.0 mi NNW 21.9 mph 25.3 mph N/A   Partly Cloudy
6:53 PM 69.1 °F 48.0 °F 47% 30.04 in 10.0 mi NW 21.9 mph 27.6 mph N/A   Clear
7:53 PM 66.9 °F 46.9 °F 49% 30.06 in 10.0 mi NNW 13.8 mph - N/A   Clear
8:53 PM 62.1 °F 51.1 °F 67% 30.07 in 10.0 mi North 5.8 mph - N/A   Clear
9:53 PM 57.9 °F 51.1 °F 78% 30.09 in 10.0 mi North 5.8 mph - N/A   Clear
10:53 PM 54.0 °F 50.0 °F 86% 30.10 in 10.0 mi NNE 5.8 mph - N/A   Clear
11:53 PM 53.1 °F 50.0 °F 89% 30.11 in 10.0 mi NNE 4.6 mph - N/A   Clear